Location: Sungai Bunut
(2.6333°N, 113.7333°E)
Time: 10:08:11
(UTC+00:00)

Courier 1B - Pass Details

Date: 06 December 2023
Orbit: 962 x 1209 km, 28.3° (Epoch: 03 March)

Event Time Altitude Azimuth Distance (km) Brightness Sun altitude
Exits shadow 20:21:40 13° 224° (SW) 2,890 9.8 -27.4°
Maximum altitude 20:28:30 54° 150° (SSE) 1,383 8.5 -25.8°
Drops below altitude 10° 20:35:39 10° 75° (ENE) 2,968 10.7 -24.2°
Sets 20:38:25 0° 70° (ENE) 3,888 11.3 -23.5°
